Hourly Weather Abay (Tyulkubasskiy rayon)

Today, 28 February, Sunday

Time Temperature Precipitation Wind Pressure Humidity
00:00 -4°C° 0 mm 1 mps 712 mmHg 70%
01:00 -6°C° 0 mm 2 mps 711 mmHg 67%
02:00 -6°C° 0 mm 2 mps 711 mmHg 65%
03:00 -6°C° 0 mm 2 mps 711 mmHg 63%
04:00 -6°C° 0 mm 2 mps 711 mmHg 61%
05:00 -4°C° 0 mm 1 mps 711 mmHg 59%
06:00 -3°C° 0 mm 1 mps 711 mmHg 59%
07:00 -5°C° 0 mm 2 mps 711 mmHg 59%
08:00 -4°C° 0 mm 2 mps 711 mmHg 59%
09:00 -3°C° 0 mm 2 mps 710 mmHg 63%
10:00 +1°C° 0 mm 1 mps 710 mmHg 66%
11:00 +3°C° 0 mm 1 mps 710 mmHg 69%
12:00 +4°C° 0 mm 1 mps 710 mmHg 72%
13:00 +4°C° 0 mm 1 mps 709 mmHg 75%
14:00 +5°C° 0 mm 1 mps 709 mmHg 77%
15:00 +5°C° 0 mm 1 mps 709 mmHg 73%
16:00 +4°C° 0 mm 1 mps 708 mmHg 69%
17:00 +2°C° 0 mm 0 mps 708 mmHg 65%
18:00 +3°C° 0 mm 1 mps 708 mmHg 62%
19:00 +2°C° 0 mm 1 mps 708 mmHg 58%
20:00 +1°C° 0 mm 2 mps 708 mmHg 55%
21:00 +2°C° 0 mm 1 mps 708 mmHg 54%
22:00 +2°C° 0 mm 1 mps 708 mmHg 53%
23:00 +2°C° 0 mm 1 mps 708 mmHg 52%

Tomorrow, 1 March, Monday

Time Temperature Precipitation Wind Pressure Humidity
00:00 +2°C° 0 mm 1 mps 707 mmHg 52%
01:00 +2°C° 0 mm 1 mps 707 mmHg 51%
02:00 +2°C° 0 mm 1 mps 707 mmHg 50%
03:00 +2°C° 0 mm 1 mps 707 mmHg 50%
04:00 +2°C° 0 mm 1 mps 707 mmHg 50%
05:00 +2°C° 0 mm 1 mps 707 mmHg 50%
06:00 +3°C° 0 mm 1 mps 707 mmHg 50%
07:00 +3°C° 0 mm 1 mps 707 mmHg 51%
08:00 +3°C° 0 mm 1 mps 707 mmHg 51%
09:00 +5°C° 0 mm 1 mps 707 mmHg 58%
10:00 +6°C° 0 mm 1 mps 707 mmHg 64%
11:00 +7°C° 0 mm 1 mps 708 mmHg 70%
12:00 +8°C° 0 mm 1 mps 707 mmHg 68%
13:00 +9°C° 0 mm 1 mps 707 mmHg 65%
14:00 +9°C° 0 mm 1 mps 707 mmHg 63%
15:00 +9°C° 0 mm 1 mps 707 mmHg 63%
16:00 +8°C° 0 mm 1 mps 707 mmHg 63%
17:00 +7°C° 0 mm 1 mps 707 mmHg 64%
18:00 +6°C° 0 mm 1 mps 707 mmHg 62%
19:00 +6°C° 0 mm 1 mps 707 mmHg 60%
20:00 +4°C° 0 mm 2 mps 707 mmHg 58%
21:00 +4°C° 0 mm 2 mps 707 mmHg 56%
22:00 +4°C° 0 mm 2 mps 707 mmHg 53%
23:00 +4°C° 0 mm 2 mps 707 mmHg 51%

Day after tomorrow, 2 March, Tuesday

Time Temperature Precipitation Wind Pressure Humidity
00:00 +4°C° 0 mm 2 mps 707 mmHg 50%
01:00 +4°C° 0 mm 2 mps 707 mmHg 49%
02:00 +4°C° 0 mm 2 mps 707 mmHg 47%
03:00 +4°C° 0 mm 2 mps 707 mmHg 49%
04:00 +4°C° 0 mm 2 mps 707 mmHg 51%
05:00 +3°C° 0 mm 2 mps 707 mmHg 53%
06:00 +3°C° 0 mm 2 mps 707 mmHg 56%
07:00 +3°C° 0 mm 2 mps 708 mmHg 58%
08:00 +3°C° 0 mm 2 mps 708 mmHg 60%
09:00 +3°C° 0 mm 3 mps 709 mmHg 63%
10:00 +4°C° 0 mm 4 mps 709 mmHg 65%
11:00 +5°C° 0 mm 4 mps 709 mmHg 67%
12:00 +6°C° 0 mm 4 mps 709 mmHg 67%
13:00 +6°C° 0 mm 4 mps 708 mmHg 67%
14:00 +7°C° 0 mm 4 mps 708 mmHg 67%
15:00 +6°C° 0 mm 4 mps 708 mmHg 68%
16:00 +7°C° 0 mm 3 mps 708 mmHg 70%
17:00 +5°C° 0 mm 3 mps 708 mmHg 71%
18:00 +5°C° 0 mm 2 mps 708 mmHg 72%
19:00 +4°C° 0 mm 2 mps 709 mmHg 73%
20:00 +4°C° 0 mm 1 mps 709 mmHg 73%
21:00 +4°C° 0 mm 1 mps 709 mmHg 73%
22:00 +4°C° 0 mm 1 mps 709 mmHg 73%
23:00 +2°C° 0 mm 0 mps 709 mmHg 73%

3 March, Wednesday

Time Temperature Precipitation Wind Pressure Humidity
00:00 +3°C° 0 mm 1 mps 709 mmHg 74%
01:00 +3°C° 0 mm 1 mps 709 mmHg 76%
02:00 +3°C° 0 mm 1 mps 710 mmHg 77%
03:00 +3°C° 0.2 mm 1 mps 710 mmHg 83%
04:00 +2°C° 0.2 mm 1 mps 710 mmHg 89%
05:00 +2°C° 0.2 mm 1 mps 710 mmHg 96%
06:00 +2°C° 0.2 mm 1 mps 710 mmHg 96%
07:00 +1°C° 0.2 mm 0 mps 710 mmHg 95%
08:00 +2°C° 0.2 mm 0 mps 710 mmHg 95%
09:00 +2°C° 0.6 mm 0 mps 710 mmHg 96%
10:00 +3°C° 0.6 mm 1 mps 710 mmHg 97%
11:00 +3°C° 0.6 mm 1 mps 710 mmHg 98%
12:00 +3°C° 0.4 mm 1 mps 710 mmHg 98%
13:00 +4°C° 0.4 mm 1 mps 709 mmHg 98%
14:00 +4°C° 0.4 mm 1 mps 709 mmHg 98%
15:00 +4°C° 0 mm 1 mps 709 mmHg 97%
16:00 +5°C° 0 mm 1 mps 709 mmHg 96%
17:00 +5°C° 0 mm 1 mps 709 mmHg 95%
18:00 +5°C° 0 mm 1 mps 708 mmHg 94%
19:00 +4°C° 0 mm 1 mps 708 mmHg 93%
20:00 +4°C° 0 mm 1 mps 708 mmHg 93%
21:00 +4°C° 0 mm 1 mps 708 mmHg 91%
22:00 +4°C° 0 mm 1 mps 708 mmHg 89%
23:00 +4°C° 0 mm 1 mps 708 mmHg 88%

4 March, Thursday

Time Temperature Precipitation Wind Pressure Humidity
00:00 +3°C° 0 mm 1 mps 708 mmHg 88%
01:00 +3°C° 0 mm 1 mps 707 mmHg 87%
02:00 +3°C° 0 mm 1 mps 707 mmHg 87%
03:00 +3°C° 0 mm 1 mps 707 mmHg 86%
04:00 +3°C° 0 mm 1 mps 707 mmHg 85%
05:00 +3°C° 0 mm 1 mps 707 mmHg 84%
06:00 +4°C° 0 mm 1 mps 707 mmHg 80%
07:00 +4°C° 0 mm 1 mps 707 mmHg 77%
08:00 +5°C° 0 mm 1 mps 707 mmHg 74%
09:00 +6°C° 0 mm 1 mps 707 mmHg 73%
10:00 +8°C° 0 mm 1 mps 706 mmHg 73%
11:00 +9°C° 0 mm 1 mps 706 mmHg 73%
12:00 +9°C° 0 mm 2 mps 706 mmHg 70%
13:00 +10°C° 0 mm 2 mps 705 mmHg 66%
14:00 +11°C° 0 mm 3 mps 705 mmHg 63%
15:00 +10°C° 0.4 mm 5 mps 705 mmHg 65%
16:00 +9°C° 0.4 mm 6 mps 705 mmHg 67%
17:00 +9°C° 0.4 mm 8 mps 705 mmHg 69%
18:00 +8°C° 0.5 mm 7 mps 706 mmHg 74%
19:00 +7°C° 0.5 mm 5 mps 706 mmHg 79%
20:00 +6°C° 0.5 mm 4 mps 706 mmHg 84%
21:00 +6°C° 0.3 mm 5 mps 707 mmHg 85%
22:00 +5°C° 0.3 mm 6 mps 707 mmHg 86%
23:00 +5°C° 0.3 mm 7 mps 707 mmHg 87%

5 March, Friday

Time Temperature Precipitation Wind Pressure Humidity
00:00 +3°C° 2 mm 6 mps 708 mmHg 90%
01:00 +1°C° 2 mm 5 mps 708 mmHg 94%
02:00 +1°C° 2 mm 3 mps 708 mmHg 98%
03:00 0°C° 2.6 mm 3 mps 709 mmHg 98%
04:00 0°C° 2.6 mm 3 mps 710 mmHg 98%
05:00 0°C° 2.6 mm 3 mps 710 mmHg 98%
06:00 0°C° 0.9 mm 3 mps 711 mmHg 97%
07:00 0°C° 0.9 mm 3 mps 712 mmHg 97%
08:00 0°C° 0.9 mm 3 mps 713 mmHg 96%
09:00 0°C° 0.1 mm 3 mps 713 mmHg 96%
10:00 0°C° 0.1 mm 3 mps 714 mmHg 95%
11:00 +1°C° 0.1 mm 2 mps 714 mmHg 95%
12:00 +1°C° 0 mm 2 mps 713 mmHg 92%
13:00 +2°C° 0 mm 1 mps 713 mmHg 89%
14:00 +3°C° 0 mm 1 mps 712 mmHg 87%
15:00 +3°C° 0 mm 1 mps 712 mmHg 86%
16:00 +2°C° 0 mm 1 mps 712 mmHg 86%
17:00 +1°C° 0 mm 2 mps 711 mmHg 86%
18:00 -1°C° 0 mm 2 mps 711 mmHg 85%
19:00 -1°C° 0 mm 3 mps 711 mmHg 84%
20:00 -2°C° 0 mm 3 mps 710 mmHg 83%
21:00 -2°C° 0 mm 3 mps 710 mmHg 82%
22:00 -2°C° 0 mm 3 mps 709 mmHg 81%
23:00 -2°C° 0 mm 3 mps 709 mmHg 80%
Show more

We Need Your Consent

Meteoprog and our Service Providers may store and access personal data such as cookies, device identifiers or other similar technologies on your device and process such data to personalise content and ads, as well as provide social media features and to analyse the traffic.

  • Store and/or access information on your device

    Cookies, device identifiers or other information can be stored or accessed on your device for the purposes indicated above.

  • Personalised ads and content, ad and content measurement, audience insights, and products development

    Ads and content can be personalised based on a profile. More data can be added to better personalise ads and content. Ad and content performance can be measured. Insights about the audience who saw the ads and content can be derived. Such data can be used to develop or improve user’s experience, systems and software.

By clicking ‘I Agree’ you will allow the use of indicated cookies, device identifiers, web beacons or other similar technologies. Your settings can be changed in the browser on your device.

For certain purposes, legitimate interests may be relied on, rather than consent. You can read more about this in our Privacy and Cookie Policy.